| time (UTC) | temp F | wind direction | speed MPH | gust MPH | rain 1hr in | rain 24hr in | rain mn in | humidity % | barometer mb |
| 20260506182550 | 57 | 226 | 8.0 | 12.0 | 0.09 | 0.02 | 0.02 | 98 | 1009.9 |
| 20260506182047 | 57 | 185 | 6.0 | 16.0 | 0.09 | 0.02 | 0.02 | 98 | 1010.3 |
| 20260506181545 | 57 | 223 | 6.0 | 20.0 | 0.02 | 0.01 | 0.01 | 98 | 1010.5 |
| 20260506181041 | 57 | 194 | 13.0 | 18.0 | 0.00 | 0.00 | 0.00 | 97 | 1010.4 |
| 20260506180538 | 57 | 220 | 8.0 | 16.0 | 0.00 | 0.00 | 0.00 | 97 | 1010.4 |
| 20260506180035 | 57 | 188 | 12.0 | 18.0 | 0.02 | 0.00 | 0.00 | 97 | 1010.4 |
| 20260506175531 | 57 | 197 | 7.0 | 18.0 | 0.02 | 0.00 | 0.00 | 97 | 1010.5 |
| 20260506175027 | 57 | 179 | 10.0 | 22.0 | 0.00 | 0.00 | 0.00 | 97 | 1010.6 |
| 20260506174527 | 58 | 228 | 9.0 | 17.0 | 0.00 | 0.00 | 0.00 | 97 | 1010.5 |
| 20260506174022 | 58 | 195 | 11.0 | 18.0 | 0.00 | 0.00 | 0.00 | 97 | 1010.7 |
| 20260506173520 | 58 | 206 | 5.0 | 15.0 | 0.00 | 0.00 | 0.00 | 97 | 1010.6 |
| 20260506173017 | 58 | 218 | 9.0 | 18.0 | 0.00 | 0.00 | 0.00 | 96 | 1010.7 |
| 20260506172514 | 58 | 237 | 11.0 | 20.0 | 0.00 | 0.00 | 0.00 | 96 | 1010.4 |
| 20260506172010 | 58 | 215 | 15.0 | 16.0 | 0.00 | 0.00 | 0.00 | 95 | 1010.6 |
| 20260506171508 | 58 | 207 | 9.0 | 22.0 | 0.00 | 0.00 | 0.00 | 95 | 1010.3 |
| 20260506171005 | 58 | 193 | 8.0 | 19.0 | 0.00 | 0.00 | 0.00 | 94 | 1010.8 |
| 20260506170501 | 58 | 207 | 14.0 | 25.0 | 0.00 | 0.00 | 0.00 | 93 | 1010.8 |
| 20260506165954 | 58 | 203 | 14.0 | 20.0 | 0.00 | 0.00 | 0.00 | 93 | 1010.9 |
| 20260506165452 | 59 | 200 | 11.0 | 21.0 | 0.00 | 0.00 | 0.00 | 92 | 1010.9 |
| 20260506164948 | 59 | 207 | 11.0 | 21.0 | 0.00 | 0.00 | 0.00 | 92 | 1011.3 |
| 20260506164445 | 59 | 257 | 7.0 | 19.0 | 0.00 | 0.00 | 0.00 | 92 | 1011.4 |
| 20260506163943 | 58 | 218 | 10.0 | 19.0 | 0.00 | 0.00 | 0.00 | 92 | 1011.6 |
| 20260506163437 | 58 | 227 | 9.0 | 20.0 | 0.00 | 0.00 | 0.00 | 92 | 1011.5 |
| 20260506162927 | 58 | 202 | 11.0 | 17.0 | 0.00 | 0.00 | 0.00 | 92 | 1011.5 |
| 20260506162425 | 59 | 192 | 5.0 | 20.0 | 0.00 | 0.00 | 0.00 | 92 | 1011.5 |
| 20260506161922 | 58 | 246 | 5.0 | 19.0 | 0.00 | 0.00 | 0.00 | 92 | 1011.5 |
| 20260506161420 | 58 | 190 | 9.0 | 20.0 | 0.00 | 0.00 | 0.00 | 92 | 1011.7 |
| 20260506160917 | 58 | 222 | 7.0 | 17.0 | 0.00 | 0.00 | 0.00 | 93 | 1011.6 |
| 20260506160414 | 58 | 255 | 11.0 | 20.0 | 0.00 | 0.00 | 0.00 | 93 | 1011.6 |
| 20260506155912 | 58 | 199 | 16.0 | 19.0 | 0.00 | 0.00 | 0.00 | 93 | 1011.7 |
| 20260506155408 | 58 | 189 | 13.0 | 16.0 | 0.00 | 0.00 | 0.00 | 93 | 1011.9 |
| 20260506153525 | 58 | 208 | 14.0 | 18.0 | 0.00 | 0.00 | 0.00 | 93 | 1012.1 |
| 20260506153022 | 58 | 208 | 12.0 | 18.0 | 0.00 | 0.00 | 0.00 | 92 | 1012.0 |
| 20260506152519 | 58 | 197 | 13.0 | 17.0 | 0.00 | 0.00 | 0.00 | 92 | 1012.2 |
| 20260506152017 | 59 | 220 | 13.0 | 18.0 | 0.00 | 0.00 | 0.00 | 91 | 1011.9 |
| 20260506151515 | 59 | 204 | 13.0 | 15.0 | 0.00 | 0.00 | 0.00 | 92 | 1012.2 |
| 20260506151012 | 58 | 228 | 9.0 | 17.0 | 0.00 | 0.00 | 0.00 | 92 | 1012.1 |
| 20260506150508 | 58 | 183 | 11.0 | 21.0 | 0.00 | 0.00 | 0.00 | 92 | 1012.3 |
| 20260506150005 | 59 | 223 | 9.0 | 23.0 | 0.00 | 0.00 | 0.00 | 91 | 1012.2 |
| 20260506145501 | 59 | 201 | 9.0 | 17.0 | 0.00 | 0.00 | 0.00 | 90 | 1012.3 |
| 20260506144959 | 59 | 211 | 9.0 | 15.0 | 0.00 | 0.00 | 0.00 | 90 | 1012.2 |
| 20260506144455 | 59 | 190 | 5.0 | 18.0 | 0.00 | 0.00 | 0.00 | 90 | 1012.3 |
| 20260506143953 | 60 | 201 | 10.0 | 19.0 | 0.00 | 0.00 | 0.00 | 89 | 1012.2 |
| 20260506143450 | 60 | 210 | 13.0 | 15.0 | 0.00 | 0.00 | 0.00 | 89 | 1012.5 |
| 20260506142949 | 59 | 226 | 7.0 | 22.0 | 0.00 | 0.00 | 0.00 | 89 | 1012.3 |
| 20260506142447 | 60 | 209 | 10.0 | 18.0 | 0.00 | 0.00 | 0.00 | 89 | 1012.4 |
| 20260506141944 | 60 | 176 | 9.0 | 12.0 | 0.00 | 0.00 | 0.00 | 89 | 1012.3 |
| 20260506141442 | 60 | 228 | 6.0 | 12.0 | 0.00 | 0.00 | 0.00 | 90 | 1012.3 |
| 20260506140940 | 59 | 229 | 4.0 | 13.0 | 0.00 | 0.00 | 0.00 | 91 | 1012.4 |
| 20260506140436 | 58 | 196 | 12.0 | 16.0 | 0.00 | 0.00 | 0.00 | 91 | 1012.4 |
| 20260506135933 | 58 | 186 | 7.0 | 21.0 | 0.00 | 0.00 | 0.00 | 92 | 1012.1 |
| 20260506135431 | 58 | 201 | 7.0 | 17.0 | 0.00 | 0.00 | 0.00 | 93 | 1012.4 |
| 20260506134927 | 58 | 194 | 6.0 | 15.0 | 0.00 | 0.00 | 0.00 | 92 | 1012.6 |
| 20260506134423 | 58 | 218 | 9.0 | 23.0 | 0.00 | 0.00 | 0.00 | 92 | 1012.6 |
| 20260506133920 | 58 | 213 | 5.0 | 17.0 | 0.00 | 0.00 | 0.00 | 92 | 1012.7 |
| 20260506133417 | 58 | 207 | 10.0 | 16.0 | 0.00 | 0.00 | 0.00 | 92 | 1012.6 |
| 20260506132913 | 58 | 201 | 9.0 | 16.0 | 0.00 | 0.00 | 0.00 | 92 | 1012.6 |
| 20260506132411 | 58 | 201 | 5.0 | 20.0 | 0.00 | 0.00 | 0.00 | 92 | 1012.7 |
| 20260506131909 | 59 | 240 | 7.0 | 14.0 | 0.00 | 0.00 | 0.00 | 91 | 1012.8 |
| 20260506131404 | 59 | 190 | 5.0 | 15.0 | 0.00 | 0.00 | 0.00 | 91 | 1012.8 |
| 20260506130902 | 58 | 189 | 9.0 | 19.0 | 0.00 | 0.00 | 0.00 | 92 | 1012.6 |
| 20260506130358 | 58 | 219 | 20.0 | 20.0 | 0.00 | 0.00 | 0.00 | 92 | 1012.6 |
| 20260506125856 | 58 | 207 | 9.0 | 25.0 | 0.00 | 0.00 | 0.00 | 93 | 1012.6 |
| 20260506125354 | 59 | 204 | 21.0 | 21.0 | 0.00 | 0.00 | 0.00 | 92 | 1012.5 |
| 20260506124852 | 58 | 212 | 9.0 | 15.0 | 0.00 | 0.00 | 0.00 | 93 | 1012.6 |
| 20260506124349 | 58 | 188 | 9.0 | 18.0 | 0.00 | 0.00 | 0.00 | 93 | 1012.8 |
| 20260506123847 | 58 | 246 | 7.0 | 20.0 | 0.00 | 0.00 | 0.00 | 93 | 1012.7 |
| 20260506123345 | 58 | 215 | 6.0 | 14.0 | 0.00 | 0.00 | 0.00 | 94 | 1012.6 |
| 20260506122842 | 57 | 199 | 13.0 | 16.0 | 0.00 | 0.00 | 0.00 | 94 | 1012.7 |
| 20260506122339 | 57 | 187 | 8.0 | 18.0 | 0.00 | 0.00 | 0.00 | 94 | 1012.7 |
| 20260506121837 | 57 | 225 | 14.0 | 21.0 | 0.00 | 0.00 | 0.00 | 94 | 1012.6 |
| 20260506121333 | 58 | 209 | 12.0 | 19.0 | 0.00 | 0.00 | 0.00 | 94 | 1012.5 |
| 20260506120831 | 58 | 189 | 7.0 | 16.0 | 0.00 | 0.00 | 0.00 | 94 | 1012.4 |
| 20260506120328 | 57 | 230 | 5.0 | 16.0 | 0.00 | 0.00 | 0.00 | 95 | 1012.5 |
| 20260506115826 | 57 | 199 | 9.0 | 20.0 | 0.00 | 0.00 | 0.00 | 95 | 1012.3 |
| 20260506115324 | 57 | 186 | 10.0 | 18.0 | 0.00 | 0.00 | 0.00 | 96 | 1012.4 |
| 20260506114821 | 57 | 195 | 13.0 | 16.0 | 0.00 | 0.00 | 0.00 | 96 | 1012.3 |
| 20260506114319 | 57 | 205 | 9.0 | 14.0 | 0.00 | 0.00 | 0.00 | 96 | 1012.3 |
| 20260506113817 | 57 | 202 | 10.0 | 19.0 | 0.00 | 0.00 | 0.00 | 96 | 1012.4 |
| 20260506113315 | 57 | 192 | 6.0 | 18.0 | 0.00 | 0.00 | 0.00 | 97 | 1012.2 |
| 20260506112811 | 57 | 196 | 8.0 | 14.0 | 0.00 | 0.00 | 0.00 | 97 | 1012.3 |
| 20260506112308 | 56 | 189 | 10.0 | 21.0 | 0.00 | 0.00 | 0.00 | 97 | 1012.5 |
| 20260506111806 | 57 | 194 | 9.0 | 20.0 | 0.00 | 0.00 | 0.00 | 97 | 1012.4 |
| 20260506111304 | 56 | 214 | 12.0 | 19.0 | 0.00 | 0.00 | 0.00 | 97 | 1012.5 |
| 20260506110801 | 56 | 194 | 9.0 | 15.0 | 0.00 | 0.00 | 0.00 | 97 | 1012.4 |
| 20260506110258 | 56 | 194 | 16.0 | 20.0 | 0.00 | 0.00 | 0.00 | 97 | 1012.3 |
| 20260506105754 | 57 | 183 | 11.0 | 20.0 | 0.00 | 0.00 | 0.00 | 98 | 1012.4 |
| 20260506105251 | 56 | 200 | 11.0 | 22.0 | 0.00 | 0.00 | 0.00 | 98 | 1012.4 |
| 20260506104749 | 56 | 197 | 5.0 | 22.0 | 0.00 | 0.00 | 0.00 | 98 | 1012.6 |
| 20260506104247 | 56 | 185 | 8.0 | 17.0 | 0.00 | 0.00 | 0.00 | 98 | 1012.4 |
| 20260506103744 | 56 | 194 | 4.0 | 17.0 | 0.00 | 0.00 | 0.00 | 98 | 1012.1 |
| 20260506103241 | 56 | 202 | 10.0 | 18.0 | 0.00 | 0.00 | 0.00 | 98 | 1012.2 |
| 20260506102739 | 56 | 154 | 7.0 | 22.0 | 0.00 | 0.00 | 0.00 | 98 | 1012.2 |
| 20260506102237 | 56 | 215 | 14.0 | 20.0 | 0.00 | 0.00 | 0.00 | 98 | 1012.2 |
| 20260506101733 | 56 | 202 | 8.0 | 19.0 | 0.00 | 0.00 | 0.00 | 98 | 1012.2 |
| 20260506101229 | 56 | 195 | 7.0 | 17.0 | 0.00 | 0.00 | 0.00 | 98 | 1012.1 |
| 20260506100727 | 56 | 187 | 14.0 | 21.0 | 0.00 | 0.00 | 0.00 | 98 | 1012.2 |
| 20260506100226 | 56 | 207 | 6.0 | 25.0 | 0.00 | 0.00 | 0.00 | 98 | 1012.1 |
| 20260506095724 | 56 | 211 | 16.0 | 17.0 | 0.00 | 0.00 | 0.00 | 98 | 1012.0 |
| 20260506095220 | 56 | 234 | 6.0 | 21.0 | 0.00 | 0.00 | 0.00 | 98 | 1011.9 |
| 20260506094717 | 56 | 187 | 9.0 | 19.0 | 0.00 | 0.00 | 0.00 | 98 | 1011.7 |
| 20260506094215 | 56 | 198 | 11.0 | 15.0 | 0.00 | 0.00 | 0.00 | 98 | 1011.9 |
| 20260506093714 | 56 | 209 | 7.0 | 18.0 | 0.00 | 0.00 | 0.00 | 98 | 1012.0 |
| 20260506093210 | 56 | 181 | 10.0 | 18.0 | 0.00 | 0.00 | 0.00 | 98 | 1012.1 |
| 20260506092708 | 56 | 211 | 9.0 | 15.0 | 0.00 | 0.00 | 0.00 | 98 | 1012.2 |
| 20260506092205 | 56 | 188 | 7.0 | 19.0 | 0.00 | 0.00 | 0.00 | 98 | 1012.1 |
| 20260506091703 | 56 | 202 | 7.0 | 17.0 | 0.00 | 0.00 | 0.00 | 98 | 1012.2 |
| 20260506091200 | 56 | 203 | 4.0 | 21.0 | 0.00 | 0.00 | 0.00 | 98 | 1012.4 |
| 20260506090658 | 56 | 203 | 7.0 | 16.0 | 0.00 | 0.00 | 0.00 | 98 | 1012.3 |
| 20260506090154 | 56 | 214 | 9.0 | 17.0 | 0.00 | 0.00 | 0.00 | 98 | 1012.6 |
| 20260506085651 | 56 | 183 | 6.0 | 19.0 | 0.00 | 0.00 | 0.00 | 98 | 1012.4 |
| 20260506085147 | 56 | 213 | 8.0 | 19.0 | 0.00 | 0.00 | 0.00 | 98 | 1012.6 |
| 20260506084644 | 56 | 223 | 6.0 | 17.0 | 0.00 | 0.00 | 0.00 | 98 | 1012.7 |
| 20260506084141 | 56 | 199 | 10.0 | 17.0 | 0.00 | 0.00 | 0.00 | 98 | 1012.6 |
| 20260506083638 | 56 | 191 | 11.0 | 14.0 | 0.00 | 0.00 | 0.00 | 98 | 1012.5 |
| 20260506083136 | 56 | 209 | 4.0 | 15.0 | 0.00 | 0.00 | 0.00 | 98 | 1012.6 |
| 20260506082632 | 56 | 197 | 6.0 | 24.0 | 0.00 | 0.00 | 0.00 | 98 | 1012.6 |
| 20260506082128 | 56 | 196 | 3.0 | 14.0 | 0.00 | 0.00 | 0.00 | 98 | 1012.5 |
| 20260506081626 | 56 | 193 | 7.0 | 14.0 | 0.00 | 0.00 | 0.00 | 98 | 1012.7 |
| 20260506081124 | 56 | 190 | 7.0 | 14.0 | 0.00 | 0.00 | 0.00 | 98 | 1012.8 |
| 20260506080621 | 56 | 201 | 13.0 | 14.0 | 0.00 | 0.00 | 0.00 | 98 | 1012.7 |
| 20260506080117 | 56 | 232 | 6.0 | 18.0 | 0.00 | 0.00 | 0.00 | 97 | 1012.6 |
| 20260506073101 | 56 | 196 | 8.0 | 21.0 | 0.00 | 0.00 | 0.00 | 97 | 1012.8 |
| 20260506072558 | 57 | 205 | 9.0 | 19.0 | 0.00 | 0.00 | 0.00 | 97 | 1012.8 |
| 20260506072056 | 57 | 234 | 6.0 | 18.0 | 0.00 | 0.00 | 0.00 | 97 | 1012.6 |
| 20260506071553 | 57 | 211 | 5.0 | 16.0 | 0.00 | 0.00 | 0.00 | 97 | 1012.6 |
| 20260506071051 | 57 | 222 | 6.0 | 22.0 | 0.00 | 0.00 | 0.00 | 97 | 1012.9 |
| 20260506070548 | 57 | 185 | 15.0 | 17.0 | 0.00 | 0.00 | 0.00 | 97 | 1012.7 |
| 20260506062022 | 57 | 265 | 7.0 | 18.0 | 0.00 | 0.00 | 0.00 | 95 | 1012.9 |
| 20260506061518 | 57 | 209 | 20.0 | 20.0 | 0.00 | 0.00 | 0.00 | 95 | 1013.0 |
| 20260506061016 | 57 | 189 | 16.0 | 18.0 | 0.00 | 0.00 | 0.00 | 95 | 1012.9 |
| 20260506060514 | 57 | 195 | 7.0 | 22.0 | 0.00 | 0.00 | 0.00 | 95 | 1013.0 |
| 20260506050942 | 57 | 203 | 9.0 | 16.0 | 0.00 | 0.00 | 0.00 | 93 | 1013.5 |
| 20260506050441 | 57 | 196 | 12.0 | 20.0 | 0.00 | 0.00 | 0.00 | 93 | 1013.4 |
| 20260506044931 | 57 | 247 | 9.0 | 17.0 | 0.00 | 0.00 | 0.00 | 93 | 1013.6 |
| 20260506044429 | 57 | 195 | 13.0 | 20.0 | 0.00 | 0.00 | 0.00 | 93 | 1013.7 |
| 20260506043925 | 57 | 209 | 9.0 | 21.0 | 0.00 | 0.00 | 0.00 | 93 | 1013.6 |
| 20260506043423 | 57 | 227 | 9.0 | 22.0 | 0.00 | 0.00 | 0.00 | 93 | 1013.5 |
| 20260506042921 | 57 | 212 | 10.0 | 26.0 | 0.00 | 0.00 | 0.00 | 93 | 1013.4 |
| 20260506042420 | 57 | 213 | 7.0 | 19.0 | 0.00 | 0.00 | 0.00 | 93 | 1013.5 |
| 20260506041918 | 57 | 186 | 10.0 | 21.0 | 0.00 | 0.00 | 0.00 | 93 | 1013.5 |
| 20260506041415 | 57 | 183 | 13.0 | 22.0 | 0.00 | 0.00 | 0.00 | 93 | 1013.5 |
| 20260506040912 | 57 | 228 | 8.0 | 17.0 | 0.00 | 0.00 | 0.00 | 93 | 1013.6 |
| 20260506040409 | 57 | 192 | 7.0 | 17.0 | 0.00 | 0.00 | 0.00 | 94 | 1013.6 |
| 20260506035905 | 57 | 203 | 12.0 | 17.0 | 0.00 | 0.00 | 0.00 | 94 | 1013.5 |
| 20260506035403 | 57 | 193 | 11.0 | 16.0 | 0.00 | 0.00 | 0.00 | 94 | 1013.6 |
| 20260506034859 | 57 | 228 | 7.0 | 19.0 | 0.00 | 0.00 | 0.00 | 93 | 1013.7 |
| 20260506034357 | 57 | 190 | 7.0 | 19.0 | 0.00 | 0.00 | 0.00 | 93 | 1013.4 |
| 20260506033854 | 57 | 198 | 12.0 | 19.0 | 0.00 | 0.00 | 0.00 | 93 | 1013.6 |
| 20260506033351 | 57 | 199 | 6.0 | 16.0 | 0.00 | 0.00 | 0.00 | 93 | 1013.7 |
| 20260506032848 | 57 | 197 | 8.0 | 18.0 | 0.00 | 0.00 | 0.00 | 93 | 1013.6 |
| 20260506032344 | 57 | 190 | 4.0 | 17.0 | 0.00 | 0.00 | 0.00 | 92 | 1013.8 |
| 20260506031841 | 57 | 191 | 10.0 | 21.0 | 0.00 | 0.00 | 0.00 | 92 | 1013.5 |
| 20260506031339 | 57 | 193 | 11.0 | 20.0 | 0.00 | 0.00 | 0.00 | 92 | 1013.7 |
| 20260506030836 | 57 | 185 | 7.0 | 18.0 | 0.00 | 0.00 | 0.00 | 92 | 1013.7 |
| 20260506030334 | 57 | 199 | 8.0 | 18.0 | 0.00 | 0.00 | 0.00 | 92 | 1013.7 |
| 20260506025830 | 57 | 201 | 9.0 | 21.0 | 0.00 | 0.00 | 0.00 | 92 | 1013.6 |
| 20260506025327 | 57 | 241 | 7.0 | 21.0 | 0.00 | 0.00 | 0.00 | 92 | 1013.6 |
| 20260506024824 | 57 | 206 | 12.0 | 15.0 | 0.00 | 0.00 | 0.00 | 92 | 1013.6 |
| 20260506024321 | 57 | 255 | 9.0 | 15.0 | 0.00 | 0.00 | 0.00 | 92 | 1013.6 |
| 20260506023817 | 57 | 196 | 11.0 | 17.0 | 0.00 | 0.00 | 0.00 | 92 | 1013.6 |
| 20260506023314 | 57 | 205 | 7.0 | 23.0 | 0.00 | 0.00 | 0.00 | 92 | 1013.8 |
| 20260506022811 | 57 | 202 | 5.0 | 17.0 | 0.00 | 0.00 | 0.00 | 92 | 1013.9 |
| 20260506022309 | 57 | 203 | 8.0 | 17.0 | 0.00 | 0.00 | 0.00 | 91 | 1013.8 |
| 20260506021807 | 57 | 202 | 9.0 | 17.0 | 0.00 | 0.00 | 0.00 | 91 | 1013.7 |
| 20260506021304 | 58 | 181 | 7.0 | 20.0 | 0.00 | 0.00 | 0.00 | 91 | 1013.7 |
| 20260506020800 | 58 | 226 | 8.0 | 20.0 | 0.00 | 0.00 | 0.00 | 91 | 1013.8 |
| 20260506020258 | 58 | 214 | 9.0 | 17.0 | 0.00 | 0.00 | 0.00 | 91 | 1013.9 |
| 20260506015755 | 57 | 222 | 7.0 | 19.0 | 0.00 | 0.00 | 0.00 | 91 | 1013.6 |
| 20260506015253 | 57 | 233 | 6.0 | 20.0 | 0.00 | 0.00 | 0.00 | 91 | 1013.5 |
| 20260506014749 | 57 | 196 | 6.0 | 19.0 | 0.00 | 0.00 | 0.00 | 91 | 1013.6 |
| 20260506014246 | 57 | 226 | 8.0 | 18.0 | 0.00 | 0.00 | 0.00 | 91 | 1013.4 |
| 20260506013743 | 57 | 192 | 4.0 | 17.0 | 0.00 | 0.00 | 0.00 | 91 | 1013.4 |
| 20260506013240 | 57 | 205 | 10.0 | 17.0 | 0.00 | 0.00 | 0.00 | 91 | 1013.4 |
| 20260506012736 | 58 | 225 | 7.0 | 18.0 | 0.00 | 0.00 | 0.00 | 90 | 1013.4 |
| 20260506012233 | 58 | 194 | 19.0 | 25.0 | 0.00 | 0.00 | 0.00 | 90 | 1013.3 |
| 20260506011731 | 58 | 212 | 6.0 | 22.0 | 0.00 | 0.00 | 0.00 | 90 | 1013.4 |
| 20260506011226 | 58 | 210 | 5.0 | 24.0 | 0.00 | 0.00 | 0.00 | 90 | 1013.3 |
| 20260506010725 | 58 | 200 | 11.0 | 18.0 | 0.00 | 0.00 | 0.00 | 91 | 1013.3 |
| 20260506010222 | 58 | 207 | 7.0 | 14.0 | 0.00 | 0.00 | 0.00 | 91 | 1013.2 |
| 20260506005720 | 58 | 199 | 11.0 | 17.0 | 0.00 | 0.00 | 0.00 | 91 | 1013.3 |
| 20260506005216 | 58 | 201 | 11.0 | 19.0 | 0.00 | 0.00 | 0.00 | 91 | 1013.1 |
| 20260506004712 | 58 | 190 | 5.0 | 20.0 | 0.00 | 0.00 | 0.00 | 91 | 1012.9 |
| 20260506004210 | 58 | 196 | 8.0 | 23.0 | 0.00 | 0.00 | 0.00 | 91 | 1013.1 |
| 20260506003706 | 58 | 220 | 9.0 | 18.0 | 0.00 | 0.00 | 0.00 | 91 | 1013.2 |
| 20260506003202 | 58 | 191 | 19.0 | 19.0 | 0.00 | 0.00 | 0.00 | 91 | 1013.0 |
| 20260506002653 | 58 | 206 | 11.0 | 21.0 | 0.00 | 0.00 | 0.00 | 91 | 1013.0 |
| 20260506002149 | 58 | 202 | 6.0 | 15.0 | 0.00 | 0.00 | 0.00 | 90 | 1013.2 |
| 20260506001645 | 58 | 190 | 9.0 | 25.0 | 0.00 | 0.00 | 0.00 | 90 | 1013.1 |
| 20260506001143 | 58 | 215 | 9.0 | 17.0 | 0.00 | 0.00 | 0.00 | 90 | 1013.0 |
| 20260506000639 | 58 | 211 | 11.0 | 18.0 | 0.00 | 0.00 | 0.00 | 90 | 1012.9 |
| 20260506000137 | 58 | 234 | 11.0 | 20.0 | 0.00 | 0.00 | 0.00 | 90 | 1013.0 |
| 20260505235635 | 58 | 213 | 10.0 | 18.0 | 0.00 | 0.00 | 0.00 | 89 | 1012.8 |
| 20260505235132 | 58 | 203 | 6.0 | 19.0 | 0.00 | 0.00 | 0.00 | 89 | 1013.0 |
| 20260505234628 | 59 | 213 | 14.0 | 17.0 | 0.00 | 0.00 | 0.00 | 88 | 1012.7 |
| 20260505234125 | 59 | 200 | 5.0 | 19.0 | 0.00 | 0.00 | 0.00 | 88 | 1012.7 |
| 20260505233623 | 59 | 197 | 4.0 | 24.0 | 0.00 | 0.00 | 0.00 | 88 | 1012.6 |
| 20260505233120 | 59 | 195 | 12.0 | 20.0 | 0.00 | 0.00 | 0.00 | 87 | 1012.6 |
| 20260505232618 | 59 | 199 | 11.0 | 22.0 | 0.00 | 0.00 | 0.00 | 87 | 1012.7 |
| 20260505232115 | 59 | 185 | 10.0 | 21.0 | 0.00 | 0.00 | 0.00 | 87 | 1012.6 |
| 20260505231612 | 59 | 211 | 11.0 | 26.0 | 0.00 | 0.00 | 0.00 | 87 | 1012.4 |
| 20260505231110 | 59 | 202 | 8.0 | 24.0 | 0.00 | 0.00 | 0.00 | 87 | 1012.4 |
| 20260505230608 | 59 | 178 | 11.0 | 19.0 | 0.00 | 0.00 | 0.00 | 86 | 1012.5 |
| 20260505230104 | 60 | 218 | 8.0 | 17.0 | 0.00 | 0.00 | 0.00 | 86 | 1012.5 |
| 20260505225601 | 59 | 185 | 7.0 | 24.0 | 0.00 | 0.00 | 0.00 | 86 | 1012.4 |
| 20260505225056 | 60 | 196 | 14.0 | 21.0 | 0.00 | 0.00 | 0.00 | 85 | 1012.3 |
| 20260505224554 | 60 | 196 | 17.0 | 22.0 | 0.00 | 0.00 | 0.00 | 85 | 1012.2 |
| 20260505224051 | 60 | 177 | 7.0 | 21.0 | 0.00 | 0.00 | 0.00 | 85 | 1012.4 |
| 20260505223548 | 60 | 230 | 9.0 | 25.0 | 0.00 | 0.00 | 0.00 | 85 | 1012.2 |
| 20260505223044 | 60 | 199 | 9.0 | 22.0 | 0.00 | 0.00 | 0.00 | 84 | 1012.2 |
| 20260505222541 | 60 | 199 | 15.0 | 20.0 | 0.00 | 0.00 | 0.00 | 84 | 1012.3 |
| 20260505222037 | 60 | 210 | 12.0 | 21.0 | 0.00 | 0.00 | 0.00 | 84 | 1012.3 |
| 20260505221534 | 60 | 210 | 8.0 | 19.0 | 0.00 | 0.00 | 0.00 | 84 | 1012.3 |
| 20260505221030 | 60 | 242 | 6.0 | 20.0 | 0.00 | 0.00 | 0.00 | 84 | 1012.1 |
| 20260505220528 | 60 | 209 | 17.0 | 23.0 | 0.00 | 0.00 | 0.00 | 84 | 1012.1 |
| 20260505220026 | 60 | 208 | 18.0 | 21.0 | 0.00 | 0.00 | 0.00 | 84 | 1011.8 |
| 20260505215523 | 60 | 201 | 13.0 | 28.0 | 0.00 | 0.00 | 0.00 | 84 | 1012.0 |
| 20260505215020 | 60 | 190 | 7.0 | 20.0 | 0.00 | 0.00 | 0.00 | 84 | 1012.1 |
| 20260505214519 | 60 | 205 | 10.0 | 23.0 | 0.00 | 0.00 | 0.00 | 84 | 1011.8 |
| 20260505214016 | 60 | 174 | 10.0 | 25.0 | 0.00 | 0.00 | 0.00 | 83 | 1011.8 |
| 20260505213514 | 60 | 209 | 9.0 | 27.0 | 0.00 | 0.00 | 0.00 | 83 | 1011.9 |
| 20260505213009 | 60 | 182 | 16.0 | 18.0 | 0.00 | 0.00 | 0.00 | 83 | 1011.7 |
| 20260505212506 | 61 | 182 | 15.0 | 27.0 | 0.00 | 0.00 | 0.00 | 83 | 1011.7 |
| 20260505212003 | 61 | 153 | 6.0 | 25.0 | 0.00 | 0.00 | 0.00 | 83 | 1011.8 |
| 20260505211501 | 61 | 179 | 12.0 | 25.0 | 0.00 | 0.00 | 0.00 | 82 | 1011.9 |
| 20260505210957 | 61 | 201 | 11.0 | 27.0 | 0.00 | 0.00 | 0.00 | 82 | 1011.8 |
| 20260505210454 | 61 | 201 | 14.0 | 23.0 | 0.00 | 0.00 | 0.00 | 82 | 1011.6 |
| 20260505205950 | 61 | 186 | 15.0 | 23.0 | 0.00 | 0.00 | 0.00 | 82 | 1011.7 |
| 20260505205449 | 62 | 185 | 4.0 | 20.0 | 0.00 | 0.00 | 0.00 | 81 | 1011.6 |
| 20260505204945 | 62 | 195 | 13.0 | 17.0 | 0.00 | 0.00 | 0.00 | 81 | 1011.7 |
| 20260505204444 | 62 | 177 | 11.0 | 20.0 | 0.00 | 0.00 | 0.00 | 81 | 1011.6 |
| 20260505203940 | 61 | 191 | 11.0 | 20.0 | 0.00 | 0.00 | 0.00 | 81 | 1011.7 |
| 20260505203436 | 61 | 219 | 6.0 | 20.0 | 0.00 | 0.00 | 0.00 | 82 | 1011.7 |
| 20260505202932 | 61 | 204 | 7.0 | 24.0 | 0.00 | 0.00 | 0.00 | 82 | 1011.7 |
| 20260505202429 | 62 | 205 | 7.0 | 22.0 | 0.00 | 0.00 | 0.00 | 81 | 1011.8 |
| 20260505201926 | 61 | 200 | 10.0 | 23.0 | 0.00 | 0.00 | 0.00 | 82 | 1012.0 |
| 20260505201423 | 62 | 219 | 6.0 | 22.0 | 0.00 | 0.00 | 0.00 | 81 | 1011.8 |
| 20260505200921 | 62 | 206 | 9.0 | 21.0 | 0.00 | 0.00 | 0.00 | 81 | 1012.2 |
| 20260505200418 | 62 | 225 | 9.0 | 16.0 | 0.00 | 0.00 | 0.00 | 81 | 1011.9 |
| 20260505195914 | 62 | 211 | 11.0 | 21.0 | 0.00 | 0.00 | 0.00 | 81 | 1012.1 |
| 20260505195411 | 62 | 201 | 11.0 | 18.0 | 0.00 | 0.00 | 0.00 | 81 | 1012.0 |
| 20260505194908 | 62 | 204 | 5.0 | 25.0 | 0.00 | 0.00 | 0.00 | 80 | 1012.1 |
| 20260505194406 | 62 | 195 | 7.0 | 19.0 | 0.00 | 0.00 | 0.00 | 82 | 1012.2 |
| 20260505193905 | 62 | 198 | 13.0 | 15.0 | 0.00 | 0.00 | 0.00 | 80 | 1012.2 |
| 20260505193403 | 62 | 206 | 6.0 | 18.0 | 0.00 | 0.00 | 0.00 | 81 | 1012.3 |
| 20260505192901 | 61 | 174 | 10.0 | 18.0 | 0.00 | 0.00 | 0.00 | 81 | 1012.4 |
| 20260505192359 | 62 | 214 | 13.0 | 20.0 | 0.00 | 0.00 | 0.00 | 81 | 1012.4 |
| 20260505191856 | 61 | 181 | 12.0 | 26.0 | 0.00 | 0.00 | 0.00 | 82 | 1012.5 |
| 20260505191354 | 62 | 133 | 5.0 | 18.0 | 0.00 | 0.00 | 0.00 | 81 | 1012.3 |
| 20260505190851 | 62 | 214 | 11.0 | 19.0 | 0.00 | 0.00 | 0.00 | 82 | 1012.5 |
| 20260505190346 | 61 | 179 | 8.0 | 16.0 | 0.00 | 0.00 | 0.00 | 82 | 1012.6 |
| 20260505185842 | 62 | 193 | 11.0 | 13.0 | 0.00 | 0.00 | 0.00 | 82 | 1012.7 |
| 20260505185339 | 61 | 178 | 7.0 | 15.0 | 0.00 | 0.00 | 0.00 | 82 | 1012.6 |
| 20260505184835 | 61 | 209 | 13.0 | 22.0 | 0.00 | 0.00 | 0.00 | 82 | 1012.5 |
| 20260505184332 | 61 | 221 | 6.0 | 15.0 | 0.00 | 0.00 | 0.00 | 83 | 1012.6 |
| 20260505183829 | 61 | 167 | 3.0 | 18.0 | 0.00 | 0.00 | 0.00 | 83 | 1012.7 |
| 20260505183326 | 61 | 192 | 8.0 | 12.0 | 0.00 | 0.00 | 0.00 | 82 | 1012.8 |